Regional Weather Roundup
Issued by NWS

Home | Current Version | Previous Version | Graphics & Text | Print | Product List | Glossary On
Versions: 1 2 3 4 5 6 7 8 9 10 11 12 13 14 15 16 17 18 19 20 21 22 23 24 25 26 27 28 29 30 31 32 33 34 35 36 37 38 39 40 41 42 43 44 45 46 47 48 49 50
000
ASUS43 KLOT 040800
RWRIL

ILLINOIS REGIONAL WEATHER ROUNDUP
NATIONAL WEATHER SERVICE CHICAGO/ROMEOVILLE IL
300 AM CDT SAT JUL 04 2015

NOTE: "FAIR" INDICATES FEW OR NO CLOUDS BELOW 12,000 FEET WITH NO
SIGNIFICANT WEATHER AND/OR OBSTRUCTIONS TO VISIBILITY.

* THESE STATIONS ARE NOT UNDER NWS QUALITY CONTROL. THEY ALSO MAY NOT
  REPORT WEATHER SUCH AS PRECIPITATION OR FOG.

ILZ001-002-007-009-015-016-024-040900-
NORTHWEST ILLINOIS

CITY           SKY/WX    TMP DP  RH WIND       PRES   REMARKS
MOLINE         CLEAR     59  56  89 CALM      29.97S FOG
STERLING*        N/A     55  54  94 CALM      29.97S VSB 1/2
$$

ILZ003-004-008-010-011-017-018-040900-
NORTH CENTRAL ILLINOIS

CITY           SKY/WX    TMP DP  RH WIND       PRES   REMARKS
ROCKFORD       CLEAR     60  57  89 CALM      29.97S
$$

ILZ005-006-012>014-019>023-040900-
NORTHEAST ILLINOIS

CITY           SKY/WX    TMP DP  RH WIND       PRES   REMARKS
CHICAGO-OHARE  CLEAR     61  55  81 CALM      29.95S
CHICAGO-MIDWAY MOCLDY    64  56  75 CALM      29.95S
AURORA         CLEAR     59  55  87 CALM      29.96S FOG
LANSING*       MOCLDY    58  55  91 CALM      29.96S FOG
WAUKEGAN       CLEAR     59  53  80 SW3       29.94S
DUPAGE AIRPORT CLEAR     59  55  87 CALM      29.96R
WHEELING       CLEAR     59  54  83 CALM      29.97R
NORTHERLY ISL    N/A     66  54  65 W6          N/A
$$

LMZ740>746-040900-
SOUTHERN LAKE MICHIGAN

STATION/POSITION SKY/WX   TEMP    WIND        PRES    VSBY  WAVE
                          AIR SEA DIR/SP/G                  HT/PER
                          (F)     (DEG/KT/KT) (MB)    (MI)  (FT/S)
HARRISON CRIB              65     310/  3/  4   N/A
BURNHAM HARBOR             65     270/  3/  5   N/A
CALUMET HARBOR             63     240/  1/  2   N/A
BURNS HARBOR               62     200/  3/  4 1014.9
MICHIGAN CITY              58     210/  3/  4   N/A
MICHIGAN CITY 6N           62 63  240/  4/  6   N/A           1
ST. JOSEPH                 62 62                N/A           0
$$

ILZ025>027-034>036-040-047-049-050-058-095>099-040900-
WEST-CENTRAL ILLINOIS

CITY           SKY/WX    TMP DP  RH WIND       PRES   REMARKS
QUINCY         CLEAR     63  59  87 N3        29.97F
MACOMB*        CLEAR     59  58  99 CALM      30.00S FOG
$$

ILZ028>032-037-038-041>044-048-051>054-059>061-040900-
CENTRAL ILLINOIS

CITY           SKY/WX    TMP DP  RH WIND       PRES   REMARKS
DECATUR        CLEAR     60  58  92 CALM      29.96S
PEORIA         CLEAR     62  58  86 CALM      29.97S FOG
SPRINGFIELD    FOG       63  60  90 W3        29.97S VSB 1/2
TAYLORVILLE    NOT AVBL
$$

ILZ033-039-045-046-055>057-062-063-040900-
EAST-CENTRAL ILLINOIS

CITY           SKY/WX    TMP DP  RH WIND       PRES   REMARKS
CHAMPAIGN      CLEAR     59  56  89 CALM      29.96F FOG
MATTOON        CLEAR     62  61  96 NW3       29.94F FOG
$$

ILZ079-100>102-040900-
SOUTHWEST ILLINOIS

CITY           SKY/WX    TMP DP  RH WIND       PRES   REMARKS
BELLEVILLE     CLEAR     67  67 100 N2        29.93S
CAHOKIA*       CLEAR     68  65  90 CALM      29.94F FOG
SPARTA*        CLEAR     68  66  94 N5        29.95S FOG
$$

ILZ064>066-069>071-074>076-080>082-084>086-088>090-092>094-040900-
SOUTH-CENTRAL ILLINOIS

CITY           SKY/WX    TMP DP  RH WIND       PRES   REMARKS
CARBONDALE     CLEAR     69  67  93 VRB5      29.92S FOG
MT. VERNON     CLEAR     66  61  82 CALM      29.95R
SALEM*         CLEAR     67  64  90 CALM      29.95S FOG
$$

ILZ067-068-072-073-078-083-087-091-040900-
SOUTHEAST ILLINOIS

CITY           SKY/WX    TMP DP  RH WIND       PRES   REMARKS
LAWRENCEVILLE  FAIR      66  64  93 N3        29.93S FOG
HARRISBURG*    CLEAR     67  67 100 CALM      29.93S FOG
CARMI*         CLEAR     68  63  83 N5        29.92S
$$

ABBREVIATIONS USED IN REMARKS
   TC - TEMPERATURE IN CELSIUS
  WCI - WIND CHILL INDEX
   HX - HEAT INDEX
  VSB - VISIBILITY
$$




USA.gov is the U.S. government's official web portal to all federal, state and local government web resources and services.